AAL2520 KTPA-KPHX

Flight info

Callsign AAL2520
Flight time 4h 2m
Altitude 32000
Route DORMR3 FROOT ROZZI Y280 LEV GIRLY/N0465F340 IAH J86 ELP DRRVR PINNG1
Aircraft A321/M-SDE3FGHIRWY/LB1

Departure

Time 2026-05-07 21:49
Airport Tampa International Airport (KTPA)

Arrival

Time 2026-05-08 01:51
Airport Phoenix Sky Harbor International Airport (KPHX)
Time Latitude Longitude Altitude Speed Heading
2026-05-07 21:35 27.97752 -82.53882 44 ft 0 kts 146°
2026-05-07 21:39 27.97759 -82.53887 43 ft 4 kts 146°
2026-05-07 21:39 27.97781 -82.53905 41 ft 4 kts 145°
2026-05-07 21:39 27.97801 -82.53924 39 ft 4 kts 124°
2026-05-07 21:39 27.97811 -82.53951 38 ft 4 kts 90°
2026-05-07 21:40 27.97810 -82.53965 40 ft 1 kts 80°
2026-05-07 21:43 27.97812 -82.53954 43 ft 4 kts 77°
2026-05-07 21:43 27.97847 -82.53931 44 ft 9 kts
2026-05-07 21:44 27.97919 -82.53952 45 ft 11 kts 345°
2026-05-07 21:44 27.97985 -82.53972 46 ft 9 kts 345°
2026-05-07 21:44 27.98029 -82.53999 47 ft 6 kts 284°
2026-05-07 21:44 27.98072 -82.54049 47 ft 13 kts 343°
2026-05-07 21:45 27.98173 -82.54061 48 ft 15 kts 359°
2026-05-07 21:45 27.98273 -82.54055 48 ft 14 kts
2026-05-07 21:45 27.98371 -82.54046 48 ft 14 kts
2026-05-07 21:45 27.98471 -82.54038 48 ft 15 kts
2026-05-07 21:46 27.98582 -82.54034 48 ft 17 kts
2026-05-07 21:46 27.98712 -82.54029 48 ft 20 kts
2026-05-07 21:46 27.98860 -82.54025 47 ft 22 kts
2026-05-07 21:46 27.99013 -82.54021 47 ft 22 kts
2026-05-07 21:47 27.99168 -82.54017 46 ft 22 kts
2026-05-07 21:47 27.99309 -82.54015 46 ft 16 kts 351°
2026-05-07 21:47 27.99343 -82.54115 46 ft 13 kts 245°
2026-05-07 21:47 27.99288 -82.54135 46 ft 7 kts 182°
2026-05-07 21:48 27.99216 -82.54138 47 ft 21 kts 182°
2026-05-07 21:48 27.98833 -82.54155 50 ft 87 kts 181°
2026-05-07 21:48 27.98027 -82.54181 47 ft 143 kts 181°
2026-05-07 21:48 27.96885 -82.54223 167 ft 176 kts 184°
2026-05-07 21:49 27.95726 -82.54386 910 ft 166 kts 197°
2026-05-07 21:49 27.94629 -82.54779 1537 ft 167 kts 202°
2026-05-07 21:49 27.93476 -82.55240 1726 ft 184 kts 208°
2026-05-07 21:49 27.92493 -82.56200 1842 ft 195 kts 241°
2026-05-07 21:50 27.91781 -82.57564 1980 ft 210 kts 242°
2026-05-07 21:50 27.90994 -82.59058 2080 ft 232 kts 240°
2026-05-07 21:50 27.90127 -82.60693 2349 ft 249 kts 242°
2026-05-07 21:50 27.89232 -82.62374 2868 ft 255 kts 242°
2026-05-07 21:51 27.88307 -82.64103 3447 ft 259 kts 241°
2026-05-07 21:51 27.87372 -82.65853 4040 ft 261 kts 242°
2026-05-07 21:51 27.86425 -82.67628 4601 ft 266 kts 243°
2026-05-07 21:51 27.85460 -82.69435 5111 ft 271 kts 240°
2026-05-07 21:52 27.84477 -82.71273 5659 ft 275 kts 240°
2026-05-07 21:52 27.83484 -82.73129 6226 ft 277 kts 242°
2026-05-07 21:52 27.82486 -82.75002 6762 ft 279 kts 241°
2026-05-07 21:52 27.81485 -82.76881 7319 ft 280 kts 241°
2026-05-07 21:53 27.80483 -82.78763 7931 ft 279 kts 240°
2026-05-07 21:53 27.79481 -82.80648 8468 ft 281 kts 240°
2026-05-07 21:53 27.78471 -82.82547 9022 ft 282 kts 240°
2026-05-07 21:53 27.77460 -82.84444 9566 ft 283 kts 239°
2026-05-07 21:54 27.76443 -82.86353 10061 ft 286 kts 239°
2026-05-07 21:54 27.75392 -82.88321 10226 ft 301 kts 239°
2026-05-07 21:54 27.74285 -82.90393 10345 ft 316 kts 239°
2026-05-07 21:54 27.73121 -82.92566 10469 ft 331 kts 239°
2026-05-07 21:55 27.71903 -82.94835 10577 ft 345 kts 239°
2026-05-07 21:55 27.70637 -82.97193 10730 ft 357 kts 239°
2026-05-07 21:55 27.69341 -82.99608 11068 ft 362 kts 239°
2026-05-07 21:55 27.68036 -83.02042 11495 ft 364 kts 239°
2026-05-07 21:56 27.66907 -83.04600 11928 ft 366 kts 250°
2026-05-07 21:56 27.66261 -83.07381 12366 ft 368 kts 261°
2026-05-07 21:56 27.65991 -83.10258 12806 ft 370 kts 264°
2026-05-07 21:56 27.65733 -83.13152 13262 ft 372 kts 264°
2026-05-07 21:57 27.65466 -83.16064 13722 ft 374 kts 263°
2026-05-07 21:57 27.65193 -83.18981 14131 ft 375 kts 263°
2026-05-07 21:57 27.64918 -83.21916 14544 ft 377 kts 264°
2026-05-07 21:57 27.64642 -83.24857 14967 ft 378 kts 264°
2026-05-07 21:58 27.64363 -83.27818 15395 ft 379 kts 264°
2026-05-07 21:58 27.64085 -83.30784 15824 ft 381 kts 264°
2026-05-07 21:58 27.63812 -83.33722 16245 ft 382 kts 264°
2026-05-07 21:58 27.63531 -83.36745 16678 ft 384 kts 264°
2026-05-07 21:59 27.63254 -83.39704 17110 ft 385 kts 264°
2026-05-07 21:59 27.62971 -83.42711 17549 ft 386 kts 264°
2026-05-07 21:59 27.62683 -83.45738 17978 ft 388 kts 264°
2026-05-07 21:59 27.62395 -83.48766 18383 ft 389 kts 265°
2026-05-07 22:00 27.62107 -83.51809 18747 ft 391 kts 265°
2026-05-07 22:00 27.61821 -83.54853 19107 ft 392 kts 264°
2026-05-07 22:00 27.61532 -83.57913 19466 ft 393 kts 264°
2026-05-07 22:00 27.61241 -83.60979 19804 ft 394 kts 264°
2026-05-07 22:01 27.60949 -83.64050 20134 ft 395 kts 264°
2026-05-07 22:01 27.60753 -83.66092 20348 ft 396 kts 264°
2026-05-07 22:01 27.60455 -83.69177 20670 ft 397 kts 264°
2026-05-07 22:01 27.60153 -83.72281 20984 ft 398 kts 264°
2026-05-07 22:02 27.59849 -83.75389 21292 ft 400 kts 264°
2026-05-07 22:02 27.59546 -83.78510 21601 ft 401 kts 264°
2026-05-07 22:02 27.59239 -83.81637 21898 ft 402 kts 264°
2026-05-07 22:02 27.58931 -83.84782 22196 ft 403 kts 264°
2026-05-07 22:03 27.58624 -83.87924 22489 ft 404 kts 264°
2026-05-07 22:03 27.58315 -83.91085 22774 ft 406 kts 264°
2026-05-07 22:03 27.58006 -83.94256 23062 ft 407 kts 264°
2026-05-07 22:03 27.57696 -83.97427 23351 ft 408 kts 264°
2026-05-07 22:04 27.57383 -84.00609 23632 ft 409 kts 264°
2026-05-07 22:04 27.57068 -84.03803 23862 ft 411 kts 264°
2026-05-07 22:04 27.56751 -84.07008 24084 ft 412 kts 264°
2026-05-07 22:04 27.56434 -84.10218 24322 ft 413 kts 264°
2026-05-07 22:05 27.56114 -84.13438 24552 ft 414 kts 264°
2026-05-07 22:05 27.55984 -84.16645 24769 ft 416 kts 272°
2026-05-07 22:05 27.56348 -84.19880 24982 ft 418 kts 279°
2026-05-07 22:05 27.56886 -84.23100 25208 ft 419 kts 279°
2026-05-07 22:06 27.57419 -84.26332 25429 ft 420 kts 279°
2026-05-07 22:06 27.57943 -84.29574 25649 ft 421 kts 279°
2026-05-07 22:06 27.58467 -84.32828 25858 ft 422 kts 279°
2026-05-07 22:06 27.58992 -84.36093 26068 ft 424 kts 279°
2026-05-07 22:07 27.59518 -84.39363 26284 ft 425 kts 279°
2026-05-07 22:07 27.60049 -84.42642 26507 ft 426 kts 279°
2026-05-07 22:07 27.60579 -84.45928 26717 ft 427 kts 279°
2026-05-07 22:07 27.61112 -84.49231 26933 ft 428 kts 279°
2026-05-07 22:08 27.61645 -84.52538 27152 ft 430 kts 279°
2026-05-07 22:08 27.62181 -84.55853 27372 ft 431 kts 279°
2026-05-07 22:08 27.62720 -84.59186 27638 ft 431 kts 279°
2026-05-07 22:08 27.63253 -84.62509 27953 ft 429 kts 279°
2026-05-07 22:09 27.63781 -84.65819 28264 ft 428 kts 279°
2026-05-07 22:09 27.64309 -84.69125 28594 ft 427 kts 278°
2026-05-07 22:09 27.64833 -84.72418 28911 ft 426 kts 278°
2026-05-07 22:09 27.65353 -84.75703 29232 ft 425 kts 278°
2026-05-07 22:10 27.65872 -84.78974 29529 ft 424 kts 278°
2026-05-07 22:10 27.66390 -84.82241 29833 ft 423 kts 278°
2026-05-07 22:10 27.66911 -84.85506 30128 ft 422 kts 278°
2026-05-07 22:10 27.67430 -84.88758 30369 ft 421 kts 278°
2026-05-07 22:11 27.67944 -84.92007 30605 ft 421 kts 278°
2026-05-07 22:11 27.68454 -84.95252 30838 ft 420 kts 278°
2026-05-07 22:11 27.68961 -84.98496 31069 ft 419 kts 278°
2026-05-07 22:11 27.69467 -85.01737 31306 ft 419 kts 278°
2026-05-07 22:12 27.69970 -85.04971 31536 ft 418 kts 278°
2026-05-07 22:12 27.70473 -85.08202 31769 ft 418 kts 278°
2026-05-07 22:12 27.70972 -85.11390 31945 ft 418 kts 278°
2026-05-07 22:12 27.71482 -85.14653 31975 ft 417 kts 278°
2026-05-07 22:13 27.72487 -85.21055 31978 ft 416 kts 278°
2026-05-07 22:13 27.73487 -85.27490 31974 ft 416 kts 278°
2026-05-07 22:14 27.75328 -85.33688 31974 ft 421 kts 292°
2026-05-07 22:14 27.77837 -85.39655 31977 ft 421 kts 292°
2026-05-07 22:15 27.80329 -85.45645 31979 ft 421 kts 291°
2026-05-07 22:15 27.82813 -85.51638 31979 ft 421 kts 291°
2026-05-07 22:16 27.85295 -85.57635 31986 ft 421 kts 291°
2026-05-07 22:16 27.87782 -85.63626 31981 ft 421 kts 291°
2026-05-07 22:17 27.90268 -85.69625 31980 ft 421 kts 291°
2026-05-07 22:17 27.92748 -85.75624 31980 ft 421 kts 291°
2026-05-07 22:18 27.96467 -85.84640 31982 ft 421 kts 291°
2026-05-07 22:19 27.98945 -85.90644 31984 ft 421 kts 291°
2026-05-07 22:19 28.01415 -85.96656 32008 ft 421 kts 291°
2026-05-07 22:20 28.03880 -86.02669 31999 ft 421 kts 291°
2026-05-07 22:20 28.06336 -86.08675 31993 ft 420 kts 290°
2026-05-07 22:21 28.08786 -86.14678 31993 ft 420 kts 291°
2026-05-07 22:21 28.11246 -86.20683 31982 ft 420 kts 291°
2026-05-07 22:22 28.13683 -86.26655 31983 ft 420 kts 290°
2026-05-07 22:22 28.16139 -86.32671 31980 ft 421 kts 290°
2026-05-07 22:23 28.18593 -86.38695 31979 ft 421 kts 290°
2026-05-07 22:23 28.21041 -86.44733 31973 ft 421 kts 290°
2026-05-07 22:24 28.23480 -86.50773 31972 ft 421 kts 290°
2026-05-07 22:24 28.25919 -86.56812 31976 ft 421 kts 290°
2026-05-07 22:25 28.28357 -86.62852 31985 ft 421 kts 290°
2026-05-07 22:25 28.30806 -86.68894 31982 ft 421 kts 290°
2026-05-07 22:26 28.32810 -86.75097 31974 ft 418 kts 284°
2026-05-07 22:26 28.34631 -86.81354 31992 ft 417 kts 284°
2026-05-07 22:27 28.36452 -86.87600 31984 ft 416 kts 284°
2026-05-07 22:27 28.38279 -86.93837 31984 ft 416 kts 284°
2026-05-07 22:28 28.40088 -87.00028 31994 ft 415 kts 284°
2026-05-07 22:28 28.41899 -87.06257 31988 ft 415 kts 284°
2026-05-07 22:29 28.43703 -87.12486 31982 ft 415 kts 284°
2026-05-07 22:29 28.45502 -87.18711 31980 ft 414 kts 284°
2026-05-07 22:30 28.47293 -87.24927 31986 ft 414 kts 284°
2026-05-07 22:30 28.49098 -87.31158 31980 ft 414 kts 284°
2026-05-07 22:31 28.50901 -87.37379 31979 ft 414 kts 284°
2026-05-07 22:31 28.52689 -87.43603 31973 ft 414 kts 284°
2026-05-07 22:32 28.54470 -87.49837 31979 ft 414 kts 284°
2026-05-07 22:32 28.56246 -87.56067 31968 ft 414 kts 284°
2026-05-07 22:33 28.58013 -87.62262 31969 ft 414 kts 284°
2026-05-07 22:33 28.59791 -87.68495 31972 ft 414 kts 284°
2026-05-07 22:34 28.61563 -87.74725 31964 ft 414 kts 283°
2026-05-07 22:34 28.63339 -87.80962 31973 ft 414 kts 283°
2026-05-07 22:35 28.65113 -87.87208 31997 ft 414 kts 283°
2026-05-07 22:35 28.66879 -87.93432 31980 ft 413 kts 283°
2026-05-07 22:36 28.68632 -87.99645 31976 ft 412 kts 283°
2026-05-07 22:36 28.70376 -88.05865 31977 ft 411 kts 283°
2026-05-07 22:37 28.72124 -88.12068 31970 ft 411 kts 283°
2026-05-07 22:37 28.73870 -88.18280 31967 ft 411 kts 283°
2026-05-07 22:38 28.75610 -88.24492 31967 ft 411 kts 283°
2026-05-07 22:38 28.77346 -88.30706 31967 ft 411 kts 283°
2026-05-07 22:39 28.79085 -88.36924 31968 ft 411 kts 283°
2026-05-07 22:39 28.80813 -88.43141 31967 ft 411 kts 283°
2026-05-07 22:40 28.82528 -88.49319 31962 ft 412 kts 283°
2026-05-07 22:40 28.84259 -88.55543 31959 ft 412 kts 283°
2026-05-07 22:41 28.85998 -88.61816 31958 ft 412 kts 283°
2026-05-07 22:41 28.87708 -88.68027 31959 ft 413 kts 283°
2026-05-07 22:42 28.89308 -88.74298 31962 ft 411 kts 280°
2026-05-07 22:42 28.90631 -88.80647 31962 ft 410 kts 279°
2026-05-07 22:43 28.91903 -88.86998 31976 ft 410 kts 279°
2026-05-07 22:43 28.93222 -88.93321 31976 ft 409 kts 279°
2026-05-07 22:44 28.94568 -88.99628 31976 ft 408 kts 279°
2026-05-07 22:44 28.95909 -89.05929 31993 ft 407 kts 279°
2026-05-07 22:45 28.97012 -89.11145 31982 ft 406 kts 279°
2026-05-07 22:45 28.98331 -89.17409 31977 ft 405 kts 279°
2026-05-07 22:46 28.99854 -89.24684 31977 ft 405 kts 279°
2026-05-07 22:46 29.01161 -89.30936 31973 ft 404 kts 279°
2026-05-07 22:47 29.02253 -89.36171 31972 ft 404 kts 279°
2026-05-07 22:47 29.03559 -89.42419 31970 ft 404 kts 279°
2026-05-07 22:48 29.04854 -89.48623 31971 ft 404 kts 279°
2026-05-07 22:48 29.06154 -89.54872 31969 ft 404 kts 279°
2026-05-07 22:49 29.07448 -89.61120 31963 ft 404 kts 279°
2026-05-07 22:49 29.08733 -89.67359 31963 ft 403 kts 279°
2026-05-07 22:50 29.10017 -89.73609 31962 ft 403 kts 279°
2026-05-07 22:50 29.11299 -89.79857 31962 ft 403 kts 279°
2026-05-07 22:51 29.12578 -89.86107 31967 ft 403 kts 279°
2026-05-07 22:51 29.13851 -89.92328 31966 ft 403 kts 279°
2026-05-07 22:52 29.15124 -89.98569 31965 ft 403 kts 279°
2026-05-07 22:52 29.16393 -90.04826 31975 ft 404 kts 279°
2026-05-07 22:53 29.17612 -90.11107 31966 ft 402 kts 274°
2026-05-07 22:53 29.18346 -90.17449 31969 ft 402 kts 274°
2026-05-07 22:54 29.19069 -90.23800 31970 ft 402 kts 274°
2026-05-07 22:54 29.19788 -90.30102 31970 ft 402 kts 274°
2026-05-07 22:55 29.20515 -90.36435 31968 ft 401 kts 274°
2026-05-07 22:55 29.21233 -90.42774 31972 ft 401 kts 274°
2026-05-07 22:56 29.21944 -90.49119 31966 ft 401 kts 274°
2026-05-07 22:56 29.22654 -90.55459 31963 ft 402 kts 274°
2026-05-07 22:57 29.23362 -90.61802 31959 ft 402 kts 274°
2026-05-07 22:57 29.24071 -90.68150 31959 ft 402 kts 274°
2026-05-07 22:58 29.24778 -90.74492 31984 ft 402 kts 274°
2026-05-07 22:58 29.25479 -90.80835 31990 ft 401 kts 274°
2026-05-07 22:59 29.26174 -90.87162 31983 ft 400 kts 274°
2026-05-07 22:59 29.26856 -90.93441 31976 ft 399 kts 274°
2026-05-07 23:00 29.27541 -90.99751 31973 ft 399 kts 274°
2026-05-07 23:00 29.28227 -91.06056 31972 ft 399 kts 274°
2026-05-07 23:01 29.28908 -91.12361 31973 ft 399 kts 273°
2026-05-07 23:01 29.29582 -91.18666 31971 ft 398 kts 273°
2026-05-07 23:02 29.30260 -91.24969 31975 ft 398 kts 273°
2026-05-07 23:02 29.30933 -91.31267 31973 ft 398 kts 273°
2026-05-07 23:03 29.31598 -91.37562 31973 ft 398 kts 273°
2026-05-07 23:03 29.32259 -91.43860 31973 ft 398 kts 273°
2026-05-07 23:04 29.32921 -91.50161 31973 ft 398 kts 273°
2026-05-07 23:04 29.33577 -91.56416 31979 ft 398 kts 273°
2026-05-07 23:05 29.34230 -91.62710 31975 ft 398 kts 273°
2026-05-07 23:05 29.34882 -91.69002 31973 ft 397 kts 273°
2026-05-07 23:06 29.35536 -91.75292 31975 ft 397 kts 273°
2026-05-07 23:06 29.36185 -91.81584 31974 ft 397 kts 273°
2026-05-07 23:07 29.36827 -91.87887 31974 ft 397 kts 273°
2026-05-07 23:07 29.37465 -91.94182 31972 ft 397 kts 272°
2026-05-07 23:08 29.38097 -92.00475 31969 ft 398 kts 272°
2026-05-07 23:08 29.38732 -92.06780 31969 ft 398 kts 272°
2026-05-07 23:09 29.39364 -92.13081 31970 ft 398 kts 272°
2026-05-07 23:09 29.39995 -92.19388 31970 ft 398 kts 273°
2026-05-07 23:10 29.40624 -92.25650 31969 ft 398 kts 272°
2026-05-07 23:10 29.41242 -92.31954 31968 ft 398 kts 272°
2026-05-07 23:11 29.41858 -92.38270 31968 ft 398 kts 272°
2026-05-07 23:11 29.42479 -92.44587 31967 ft 399 kts 272°
2026-05-07 23:12 29.43094 -92.50912 31968 ft 399 kts 272°
2026-05-07 23:12 29.43705 -92.57236 31968 ft 399 kts 272°
2026-05-07 23:13 29.44318 -92.63563 31971 ft 399 kts 272°
2026-05-07 23:13 29.44926 -92.69887 31982 ft 399 kts 272°
2026-05-07 23:14 29.45532 -92.76202 31987 ft 398 kts 272°
2026-05-07 23:14 29.46130 -92.82517 31985 ft 398 kts 272°
2026-05-07 23:15 29.46722 -92.88833 31981 ft 398 kts 272°
2026-05-07 23:15 29.47317 -92.95140 31977 ft 397 kts 272°
2026-05-07 23:16 29.47909 -93.01451 31980 ft 397 kts 272°
2026-05-07 23:16 29.48530 -93.07751 31977 ft 399 kts 276°
2026-05-07 23:17 29.49829 -93.13942 31977 ft 402 kts 279°
2026-05-07 23:17 29.51183 -93.20167 31997 ft 402 kts 279°
2026-05-07 23:18 29.52533 -93.26401 31990 ft 403 kts 279°
2026-05-07 23:18 29.53884 -93.32640 31983 ft 402 kts 279°
2026-05-07 23:19 29.55232 -93.38884 31980 ft 402 kts 279°
2026-05-07 23:19 29.56572 -93.45122 31979 ft 402 kts 279°
2026-05-07 23:20 29.57908 -93.51377 31972 ft 402 kts 279°
2026-05-07 23:20 29.59232 -93.57586 31973 ft 403 kts 279°
2026-05-07 23:21 29.60562 -93.63839 31978 ft 403 kts 279°
2026-05-07 23:21 29.61894 -93.70093 31976 ft 403 kts 279°
2026-05-07 23:22 29.63227 -93.76357 31975 ft 403 kts 279°
2026-05-07 23:22 29.64555 -93.82620 31973 ft 403 kts 278°
2026-05-07 23:23 29.65872 -93.88880 31976 ft 403 kts 278°
2026-05-07 23:23 29.67190 -93.95153 31976 ft 403 kts 278°
2026-05-07 23:24 29.68510 -94.01416 31967 ft 403 kts 278°
2026-05-07 23:24 29.69826 -94.07684 31967 ft 403 kts 278°
2026-05-07 23:25 29.71135 -94.13946 31966 ft 403 kts 278°
2026-05-07 23:25 29.72438 -94.20211 31975 ft 403 kts 278°
2026-05-07 23:26 29.73744 -94.26473 31979 ft 402 kts 278°
2026-05-07 23:26 29.75043 -94.32720 31977 ft 401 kts 278°
2026-05-07 23:27 29.76957 -94.42015 31988 ft 398 kts 278°
2026-05-07 23:27 29.78232 -94.48214 31978 ft 398 kts 278°
2026-05-07 23:28 29.79509 -94.54409 31973 ft 398 kts 278°
2026-05-07 23:28 29.80778 -94.60604 31976 ft 397 kts 278°
2026-05-07 23:29 29.82045 -94.66795 31974 ft 398 kts 278°
2026-05-07 23:29 29.83310 -94.72992 31973 ft 397 kts 278°
2026-05-07 23:30 29.84568 -94.79192 31972 ft 397 kts 278°
2026-05-07 23:30 29.85832 -94.85388 31972 ft 397 kts 278°
2026-05-07 23:31 29.86878 -94.90537 31976 ft 397 kts 278°
2026-05-07 23:31 29.88124 -94.96725 31973 ft 397 kts 278°
2026-05-07 23:32 29.89374 -95.02925 31975 ft 397 kts 278°
2026-05-07 23:32 29.90611 -95.09086 31969 ft 397 kts 278°
2026-05-07 23:33 29.91867 -95.15349 31971 ft 398 kts 278°
2026-05-07 23:33 29.93110 -95.21564 31978 ft 397 kts 278°
2026-05-07 23:34 29.94351 -95.27782 31974 ft 397 kts 278°
2026-05-07 23:34 29.95576 -95.33948 31979 ft 398 kts 278°
2026-05-07 23:35 29.96686 -95.40179 31981 ft 396 kts 276°
2026-05-07 23:35 29.97648 -95.46427 31980 ft 395 kts 275°
2026-05-07 23:36 29.98603 -95.52662 31984 ft 394 kts 275°
2026-05-07 23:36 29.99584 -95.58885 32010 ft 395 kts 276°
2026-05-07 23:37 30.00577 -95.65112 31964 ft 394 kts 276°
2026-05-07 23:37 30.01568 -95.71306 31972 ft 393 kts 276°
2026-05-07 23:38 30.02552 -95.77497 31968 ft 392 kts 275°
2026-05-07 23:38 30.03526 -95.83690 31938 ft 392 kts 275°
2026-05-07 23:39 30.04498 -95.89877 31929 ft 392 kts 275°
2026-05-07 23:39 30.05469 -95.96078 31897 ft 392 kts 275°
2026-05-07 23:40 30.06437 -96.02276 31880 ft 392 kts 275°
2026-05-07 23:40 30.07400 -96.08433 31861 ft 393 kts 275°
2026-05-07 23:41 30.08359 -96.14642 31824 ft 393 kts 275°
2026-05-07 23:41 30.09316 -96.20861 31821 ft 393 kts 275°
2026-05-07 23:42 30.10279 -96.27083 31836 ft 393 kts 275°
2026-05-07 23:42 30.11236 -96.33294 31827 ft 393 kts 275°
2026-05-07 23:43 30.12187 -96.39515 31856 ft 393 kts 275°
2026-05-07 23:43 30.13136 -96.45731 31844 ft 393 kts 275°
2026-05-07 23:44 30.14090 -96.51966 31848 ft 394 kts 275°
2026-05-07 23:44 30.15038 -96.58198 31879 ft 393 kts 275°
2026-05-07 23:45 30.15980 -96.64434 31923 ft 393 kts 275°
2026-05-07 23:45 30.16915 -96.70664 31989 ft 393 kts 275°
2026-05-07 23:46 30.17851 -96.76891 32035 ft 394 kts 275°
2026-05-07 23:46 30.18790 -96.83131 32067 ft 394 kts 275°
2026-05-07 23:47 30.19707 -96.89322 32097 ft 394 kts 274°
2026-05-07 23:47 30.20631 -96.95571 32098 ft 394 kts 274°
2026-05-07 23:48 30.21553 -97.01816 32123 ft 394 kts 274°
2026-05-07 23:48 30.22482 -97.08052 32111 ft 394 kts 274°
2026-05-07 23:49 30.23409 -97.14304 32088 ft 394 kts 274°
2026-05-07 23:49 30.24318 -97.20562 32034 ft 394 kts 274°
2026-05-07 23:50 30.25229 -97.26806 32034 ft 394 kts 274°
2026-05-07 23:50 30.26137 -97.33057 32059 ft 394 kts 274°
2026-05-07 23:51 30.27045 -97.39306 32058 ft 394 kts 274°
2026-05-07 23:51 30.27953 -97.45562 32057 ft 394 kts 274°
2026-05-07 23:52 30.28860 -97.51813 32056 ft 394 kts 274°
2026-05-07 23:52 30.29755 -97.58076 32077 ft 394 kts 274°
2026-05-07 23:53 30.30638 -97.64294 32086 ft 394 kts 274°
2026-05-07 23:53 30.31529 -97.70559 32082 ft 395 kts 274°
2026-05-07 23:54 30.32424 -97.76833 32085 ft 395 kts 274°
2026-05-07 23:54 30.33317 -97.83103 32103 ft 395 kts 274°
2026-05-07 23:55 30.34206 -97.89382 32108 ft 395 kts 274°
2026-05-07 23:55 30.35089 -97.95653 32109 ft 395 kts 274°
2026-05-07 23:56 30.35970 -98.01939 32114 ft 395 kts 274°
2026-05-07 23:56 30.36846 -98.08215 32112 ft 395 kts 274°
2026-05-07 23:57 30.37711 -98.14460 32108 ft 395 kts 274°
2026-05-07 23:57 30.38579 -98.20738 32087 ft 395 kts 274°
2026-05-07 23:58 30.39443 -98.27027 32083 ft 395 kts 273°
2026-05-07 23:58 30.40158 -98.32248 32085 ft 395 kts 274°
2026-05-07 23:59 30.41001 -98.38387 32090 ft 395 kts 273°
2026-05-07 23:59 30.41865 -98.44675 32083 ft 395 kts 273°
2026-05-08 00:00 30.42727 -98.50960 32074 ft 395 kts 273°
2026-05-08 00:00 30.43582 -98.57254 32078 ft 395 kts 273°
2026-05-08 00:01 30.44432 -98.63548 32075 ft 395 kts 273°
2026-05-08 00:01 30.45275 -98.69842 32069 ft 395 kts 273°
2026-05-08 00:02 30.46109 -98.76095 32061 ft 395 kts 273°
2026-05-08 00:02 30.46950 -98.82401 32056 ft 396 kts 273°
2026-05-08 00:03 30.47795 -98.88713 32056 ft 396 kts 273°
2026-05-08 00:03 30.48631 -98.95027 32056 ft 396 kts 273°
2026-05-08 00:04 30.49463 -99.01342 32046 ft 396 kts 273°
2026-05-08 00:04 30.50299 -99.07672 32054 ft 396 kts 273°
2026-05-08 00:05 30.51132 -99.13993 32051 ft 397 kts 273°
2026-05-08 00:05 30.51958 -99.20329 32054 ft 397 kts 273°
2026-05-08 00:06 30.52771 -99.26623 32040 ft 397 kts 272°
2026-05-08 00:06 30.53589 -99.32973 32043 ft 398 kts 273°
2026-05-08 00:07 30.54414 -99.39324 32046 ft 398 kts 273°
2026-05-08 00:07 30.55235 -99.45674 32057 ft 398 kts 272°
2026-05-08 00:08 30.56051 -99.52024 32065 ft 398 kts 272°
2026-05-08 00:08 30.56861 -99.58380 32070 ft 398 kts 272°
2026-05-08 00:09 30.57661 -99.64697 32078 ft 398 kts 272°
2026-05-08 00:09 30.58460 -99.71061 32086 ft 399 kts 272°
2026-05-08 00:10 30.59264 -99.77422 32101 ft 399 kts 272°
2026-05-08 00:10 30.60063 -99.83788 32105 ft 399 kts 272°
2026-05-08 00:11 30.60861 -99.90169 32082 ft 399 kts 272°
2026-05-08 00:11 30.61654 -99.96564 32067 ft 400 kts 272°
2026-05-08 00:12 30.62442 -100.02947 32050 ft 400 kts 272°
2026-05-08 00:12 30.63219 -100.09353 32037 ft 400 kts 272°
2026-05-08 00:13 30.63992 -100.15706 32023 ft 400 kts 272°
2026-05-08 00:13 30.64771 -100.22103 32039 ft 400 kts 272°
2026-05-08 00:14 30.65557 -100.28500 32029 ft 400 kts 272°
2026-05-08 00:14 30.66336 -100.34932 32065 ft 400 kts 271°
2026-05-08 00:15 30.67095 -100.41290 32076 ft 400 kts 271°
2026-05-08 00:15 30.67855 -100.47687 32095 ft 400 kts 271°
2026-05-08 00:16 30.68488 -100.53008 32108 ft 400 kts 271°
2026-05-08 00:16 30.69250 -100.59418 32128 ft 400 kts 271°
2026-05-08 00:17 30.70007 -100.65832 32123 ft 401 kts 271°
2026-05-08 00:17 30.70763 -100.72245 32111 ft 401 kts 271°
2026-05-08 00:18 30.71521 -100.78655 32096 ft 400 kts 271°
2026-05-08 00:18 30.72260 -100.85058 32082 ft 400 kts 271°
2026-05-08 00:19 30.73004 -100.91471 32064 ft 400 kts 271°
2026-05-08 00:19 30.73747 -100.97877 32078 ft 400 kts 271°
2026-05-08 00:20 30.74483 -101.04275 32093 ft 399 kts 271°
2026-05-08 00:20 30.75213 -101.10639 32108 ft 400 kts 271°
2026-05-08 00:21 30.75944 -101.17039 32108 ft 400 kts 271°
2026-05-08 00:21 30.76673 -101.23457 32131 ft 400 kts 270°
2026-05-08 00:22 30.77395 -101.29866 32044 ft 399 kts 270°
2026-05-08 00:22 30.78121 -101.36265 32043 ft 399 kts 270°
2026-05-08 00:23 30.78841 -101.42657 32039 ft 398 kts 270°
2026-05-08 00:23 30.79556 -101.49043 32039 ft 398 kts 270°
2026-05-08 00:24 30.80263 -101.55421 32038 ft 398 kts 270°
2026-05-08 00:24 30.80964 -101.61805 32034 ft 398 kts 269°
2026-05-08 00:25 30.81664 -101.68186 32042 ft 398 kts 269°
2026-05-08 00:25 30.82370 -101.74572 32041 ft 397 kts 269°
2026-05-08 00:26 30.83067 -101.80945 32041 ft 397 kts 269°
2026-05-08 00:26 30.83752 -101.87315 32038 ft 396 kts 269°
2026-05-08 00:27 30.84432 -101.93601 32036 ft 396 kts 269°
2026-05-08 00:27 30.85121 -101.99966 32033 ft 397 kts 269°
2026-05-08 00:28 30.85804 -102.06337 32041 ft 397 kts 269°
2026-05-08 00:28 30.86460 -102.12504 32036 ft 396 kts 269°
2026-05-08 00:29 30.87133 -102.18831 32035 ft 397 kts 269°
2026-05-08 00:29 30.87803 -102.25166 32028 ft 397 kts 269°
2026-05-08 00:30 30.88477 -102.31549 32032 ft 397 kts 269°
2026-05-08 00:30 30.89143 -102.37906 32021 ft 396 kts 268°
2026-05-08 00:31 30.89798 -102.44281 32035 ft 396 kts 268°
2026-05-08 00:31 30.90459 -102.50654 32021 ft 396 kts 268°
2026-05-08 00:32 30.91117 -102.57017 32026 ft 395 kts 268°
2026-05-08 00:32 30.91727 -102.62942 32023 ft 393 kts 268°
2026-05-08 00:33 30.92377 -102.69265 32035 ft 393 kts 268°
2026-05-08 00:33 30.92994 -102.75345 32047 ft 393 kts 268°
2026-05-08 00:34 30.93628 -102.81672 32065 ft 393 kts 268°
2026-05-08 00:34 30.94258 -102.87940 31974 ft 392 kts 268°
2026-05-08 00:35 30.94887 -102.94259 31974 ft 392 kts 268°
2026-05-08 00:35 30.96008 -103.00461 31966 ft 405 kts 278°
2026-05-08 00:36 30.97751 -103.06703 31958 ft 405 kts 278°
2026-05-08 00:36 30.99474 -103.12955 31947 ft 405 kts 277°
2026-05-08 00:37 31.01187 -103.19206 31955 ft 405 kts 277°
2026-05-08 00:38 31.03756 -103.28591 31950 ft 405 kts 277°
2026-05-08 00:38 31.05469 -103.34853 31953 ft 405 kts 277°
2026-05-08 00:39 31.07175 -103.41126 31956 ft 405 kts 277°
2026-05-08 00:39 31.08879 -103.47393 31999 ft 405 kts 277°
2026-05-08 00:40 31.10588 -103.53662 31998 ft 405 kts 277°
2026-05-08 00:40 31.12288 -103.59916 31990 ft 404 kts 277°
2026-05-08 00:41 31.13976 -103.66180 31982 ft 404 kts 277°
2026-05-08 00:41 31.15650 -103.72363 31973 ft 404 kts 277°
2026-05-08 00:42 31.17339 -103.78623 31965 ft 404 kts 277°
2026-05-08 00:42 31.19017 -103.84884 31953 ft 404 kts 277°
2026-05-08 00:43 31.20698 -103.91158 31946 ft 404 kts 277°
2026-05-08 00:43 31.22375 -103.97431 31952 ft 405 kts 277°
2026-05-08 00:44 31.24057 -104.03716 31949 ft 405 kts 277°
2026-05-08 00:44 31.25737 -104.10003 31956 ft 405 kts 277°
2026-05-08 00:45 31.27406 -104.16294 31952 ft 405 kts 277°
2026-05-08 00:45 31.29075 -104.22587 32022 ft 404 kts 277°
2026-05-08 00:46 31.30725 -104.28805 31937 ft 397 kts 277°
2026-05-08 00:46 31.32356 -104.34983 31933 ft 398 kts 277°
2026-05-08 00:47 31.33980 -104.41189 31928 ft 399 kts 277°
2026-05-08 00:47 31.35614 -104.47399 31931 ft 400 kts 277°
2026-05-08 00:48 31.37250 -104.53625 31937 ft 400 kts 277°
2026-05-08 00:48 31.38882 -104.59851 31942 ft 400 kts 277°
2026-05-08 00:49 31.40511 -104.66075 31940 ft 400 kts 277°
2026-05-08 00:49 31.42127 -104.72301 31944 ft 400 kts 277°
2026-05-08 00:50 31.43739 -104.78501 31948 ft 400 kts 277°
2026-05-08 00:50 31.45363 -104.84736 31948 ft 400 kts 277°
2026-05-08 00:51 31.46976 -104.90972 31968 ft 399 kts 277°
2026-05-08 00:51 31.48577 -104.97174 31918 ft 394 kts 277°
2026-05-08 00:52 31.50164 -105.03302 31898 ft 393 kts 277°
2026-05-08 00:52 31.51737 -105.09450 31889 ft 395 kts 276°
2026-05-08 00:53 31.53312 -105.15594 31893 ft 396 kts 277°
2026-05-08 00:53 31.54895 -105.21789 31899 ft 397 kts 277°
2026-05-08 00:54 31.56482 -105.28002 31902 ft 398 kts 277°
2026-05-08 00:54 31.58068 -105.34217 31928 ft 398 kts 276°
2026-05-08 00:55 31.59655 -105.40446 31910 ft 398 kts 276°
2026-05-08 00:55 31.61245 -105.46674 31905 ft 398 kts 276°
2026-05-08 00:56 31.62827 -105.52905 31906 ft 398 kts 276°
2026-05-08 00:56 31.64397 -105.59139 31908 ft 398 kts 276°
2026-05-08 00:57 31.65967 -105.65370 31926 ft 399 kts 276°
2026-05-08 00:57 31.67543 -105.71626 31900 ft 400 kts 276°
2026-05-08 00:58 31.69115 -105.77905 31890 ft 401 kts 276°
2026-05-08 00:58 31.70688 -105.84204 31880 ft 402 kts 276°
2026-05-08 00:59 31.72001 -105.89446 31883 ft 403 kts 276°
2026-05-08 00:59 31.73584 -105.95753 31879 ft 403 kts 276°
2026-05-08 01:00 31.75150 -106.02068 31916 ft 403 kts 276°
2026-05-08 01:00 31.76712 -106.08399 31920 ft 404 kts 276°
2026-05-08 01:01 31.78283 -106.14754 31948 ft 405 kts 276°
2026-05-08 01:01 31.79851 -106.21114 31976 ft 405 kts 276°
2026-05-08 01:02 31.81416 -106.27481 32002 ft 404 kts 275°
2026-05-08 01:02 31.82353 -106.33895 32002 ft 397 kts 270°
2026-05-08 01:03 31.83187 -106.40289 31999 ft 399 kts 271°
2026-05-08 01:03 31.84029 -106.46765 31987 ft 401 kts 271°
2026-05-08 01:04 31.84878 -106.53268 31962 ft 403 kts 271°
2026-05-08 01:04 31.85728 -106.59789 32005 ft 403 kts 271°
2026-05-08 01:05 31.86565 -106.66324 32021 ft 403 kts 271°
2026-05-08 01:05 31.87401 -106.72854 32044 ft 404 kts 271°
2026-05-08 01:06 31.88230 -106.79355 32028 ft 405 kts 271°
2026-05-08 01:06 31.89062 -106.85910 32004 ft 405 kts 271°
2026-05-08 01:06 31.89478 -106.89187 31848 ft 405 kts 271°
2026-05-08 01:07 31.89894 -106.92461 31846 ft 405 kts 271°
2026-05-08 01:07 31.90727 -106.99017 31850 ft 405 kts 271°
2026-05-08 01:08 31.91553 -107.05570 31876 ft 405 kts 271°
2026-05-08 01:08 31.92372 -107.12141 31844 ft 407 kts 270°
2026-05-08 01:09 31.93188 -107.18742 31848 ft 408 kts 271°
2026-05-08 01:09 31.94017 -107.25344 31842 ft 408 kts 271°
2026-05-08 01:10 31.94826 -107.31912 31845 ft 408 kts 270°
2026-05-08 01:10 31.95638 -107.38534 31838 ft 409 kts 271°
2026-05-08 01:11 31.96450 -107.45186 31824 ft 411 kts 272°
2026-05-08 01:11 31.97259 -107.51869 31834 ft 414 kts 272°
2026-05-08 01:12 31.98077 -107.58591 31856 ft 415 kts 272°
2026-05-08 01:12 31.98893 -107.65336 31880 ft 416 kts 272°
2026-05-08 01:13 31.99705 -107.72089 31893 ft 417 kts 272°
2026-05-08 01:13 32.00518 -107.78854 31895 ft 418 kts 272°
2026-05-08 01:14 32.01321 -107.85612 31819 ft 420 kts 272°
2026-05-08 01:14 32.02133 -107.92450 31821 ft 422 kts 272°
2026-05-08 01:15 32.02941 -107.99301 31829 ft 423 kts 272°
2026-05-08 01:15 32.03752 -108.06165 31834 ft 423 kts 272°
2026-05-08 01:16 32.04557 -108.13042 31838 ft 423 kts 272°
2026-05-08 01:16 32.05352 -108.19911 31844 ft 423 kts 272°
2026-05-08 01:17 32.06151 -108.26793 31848 ft 423 kts 272°
2026-05-08 01:17 32.06943 -108.33670 31849 ft 423 kts 272°
2026-05-08 01:18 32.07729 -108.40549 31855 ft 423 kts 272°
2026-05-08 01:18 32.08512 -108.47440 31864 ft 425 kts 273°
2026-05-08 01:19 32.09297 -108.54373 31877 ft 428 kts 273°
2026-05-08 01:19 32.10088 -108.61352 31896 ft 430 kts 273°
2026-05-08 01:20 32.10878 -108.68355 31910 ft 431 kts 273°
2026-05-08 01:20 32.11667 -108.75367 31826 ft 431 kts 273°
2026-05-08 01:21 32.12440 -108.82342 31821 ft 433 kts 274°
2026-05-08 01:21 32.13221 -108.89403 31811 ft 435 kts 274°
2026-05-08 01:22 32.14003 -108.96498 31818 ft 437 kts 274°
2026-05-08 01:22 32.14786 -109.03608 31822 ft 438 kts 274°
2026-05-08 01:23 32.15559 -109.10738 31831 ft 438 kts 274°
2026-05-08 01:23 32.16330 -109.17880 31836 ft 440 kts 274°
2026-05-08 01:24 32.17103 -109.25060 31831 ft 442 kts 274°
2026-05-08 01:24 32.17865 -109.32284 31842 ft 448 kts 275°
2026-05-08 01:25 32.18569 -109.39680 31853 ft 456 kts 275°
2026-05-08 01:25 32.19276 -109.47143 31871 ft 459 kts 276°
2026-05-08 01:26 32.19962 -109.54683 31847 ft 462 kts 280°
2026-05-08 01:26 32.21591 -109.61930 31856 ft 458 kts 285°
2026-05-08 01:27 32.23304 -109.69165 31846 ft 458 kts 285°
2026-05-08 01:27 32.25020 -109.76410 31866 ft 458 kts 285°
2026-05-08 01:28 32.26736 -109.83672 31865 ft 459 kts 287°
2026-05-08 01:28 32.28445 -109.90940 31858 ft 460 kts 287°
2026-05-08 01:29 32.30151 -109.98237 31864 ft 461 kts 286°
2026-05-08 01:29 32.31852 -110.05544 31852 ft 461 kts 288°
2026-05-08 01:30 32.33561 -110.12881 31838 ft 464 kts 288°
2026-05-08 01:30 32.35276 -110.20254 31839 ft 466 kts 289°
2026-05-08 01:31 32.36980 -110.27624 31842 ft 469 kts 288°
2026-05-08 01:31 32.38701 -110.35070 31847 ft 469 kts 289°
2026-05-08 01:31 32.39562 -110.38801 31705 ft 470 kts 289°
2026-05-08 01:32 32.40423 -110.42534 31456 ft 471 kts 289°
2026-05-08 01:32 32.41285 -110.46275 31199 ft 471 kts 289°
2026-05-08 01:32 32.42141 -110.50005 30675 ft 469 kts 290°
2026-05-08 01:32 32.42994 -110.53732 30085 ft 468 kts 290°
2026-05-08 01:33 32.43844 -110.57454 29418 ft 467 kts 290°
2026-05-08 01:33 32.44683 -110.61154 28833 ft 464 kts 290°
2026-05-08 01:33 32.45516 -110.64837 28241 ft 462 kts 290°
2026-05-08 01:33 32.46365 -110.68480 27742 ft 454 kts 293°
2026-05-08 01:34 32.47563 -110.71869 27434 ft 441 kts 304°
2026-05-08 01:34 32.49169 -110.74921 27149 ft 435 kts 310°
2026-05-08 01:34 32.50878 -110.77890 26634 ft 435 kts 309°
2026-05-08 01:34 32.52572 -110.80848 26100 ft 432 kts 309°
2026-05-08 01:35 32.54242 -110.83780 25678 ft 427 kts 309°
2026-05-08 01:35 32.55898 -110.86696 25089 ft 426 kts 309°
2026-05-08 01:35 32.57545 -110.89597 24610 ft 423 kts 308°
2026-05-08 01:35 32.59191 -110.92484 24095 ft 421 kts 308°
2026-05-08 01:36 32.60824 -110.95345 23629 ft 419 kts 308°
2026-05-08 01:36 32.62455 -110.98196 23184 ft 415 kts 308°
2026-05-08 01:36 32.64082 -111.01036 22614 ft 414 kts 307°
2026-05-08 01:36 32.65688 -111.03847 22157 ft 410 kts 307°
2026-05-08 01:37 32.67265 -111.06615 21708 ft 407 kts 307°
2026-05-08 01:37 32.68856 -111.09419 21285 ft 403 kts 307°
2026-05-08 01:37 32.70419 -111.12174 20909 ft 398 kts 307°
2026-05-08 01:37 32.71951 -111.14880 20377 ft 397 kts 307°
2026-05-08 01:38 32.73517 -111.17639 19751 ft 410 kts 307°
2026-05-08 01:38 32.75163 -111.20530 19252 ft 429 kts 306°
2026-05-08 01:38 32.76812 -111.23436 18744 ft 431 kts 306°
2026-05-08 01:38 32.78476 -111.26380 18220 ft 428 kts 306°
2026-05-08 01:39 32.80132 -111.29312 17646 ft 425 kts 306°
2026-05-08 01:39 32.81775 -111.32221 17137 ft 422 kts 306°
2026-05-08 01:39 32.83402 -111.35100 16620 ft 418 kts 306°
2026-05-08 01:39 32.85020 -111.37967 16087 ft 415 kts 306°
2026-05-08 01:40 32.86625 -111.40819 15601 ft 413 kts 306°
2026-05-08 01:40 32.88216 -111.43650 15104 ft 410 kts 306°
2026-05-08 01:40 32.89801 -111.46441 14931 ft 406 kts 309°
2026-05-08 01:40 32.91761 -111.48816 14779 ft 400 kts 326°
2026-05-08 01:41 32.94178 -111.50404 14141 ft 397 kts 340°
2026-05-08 01:41 32.96718 -111.51638 13700 ft 390 kts 341°
2026-05-08 01:41 32.99239 -111.52842 12957 ft 390 kts 341°
2026-05-08 01:41 33.01734 -111.54034 12401 ft 385 kts 340°
2026-05-08 01:42 33.04204 -111.55220 12043 ft 376 kts 340°
2026-05-08 01:42 33.06639 -111.56399 11994 ft 379 kts 340°
2026-05-08 01:42 33.09078 -111.57586 11561 ft 379 kts 340°
2026-05-08 01:42 33.11514 -111.58785 10956 ft 376 kts 339°
2026-05-08 01:43 33.13919 -111.59976 10400 ft 372 kts 339°
2026-05-08 01:43 33.16269 -111.61141 9854 ft 369 kts 339°
2026-05-08 01:43 33.18627 -111.62309 9267 ft 365 kts 339°
2026-05-08 01:43 33.20951 -111.63462 8936 ft 360 kts 338°
2026-05-08 01:44 33.23271 -111.64624 8853 ft 362 kts 337°
2026-05-08 01:44 33.25569 -111.65862 8342 ft 361 kts 336°
2026-05-08 01:44 33.27778 -111.67235 7774 ft 356 kts 326°
2026-05-08 01:44 33.29786 -111.68951 7233 ft 354 kts 323°
2026-05-08 01:45 33.31769 -111.70658 6708 ft 348 kts 322°
2026-05-08 01:45 33.33699 -111.72324 5572 ft 340 kts 322°
2026-05-08 01:45 33.34989 -111.73438 4900 ft 335 kts 322°
2026-05-08 01:45 33.36816 -111.75018 4398 ft 311 kts 322°
2026-05-08 01:46 33.38490 -111.76465 4195 ft 282 kts 322°
2026-05-08 01:46 33.39986 -111.77756 4078 ft 256 kts 321°
2026-05-08 01:46 33.41354 -111.78935 4020 ft 228 kts 321°
2026-05-08 01:46 33.42606 -111.80031 4021 ft 219 kts 317°
2026-05-08 01:47 33.43549 -111.81383 3853 ft 204 kts 297°
2026-05-08 01:47 33.43995 -111.82883 3690 ft 182 kts 278°
2026-05-08 01:47 33.44049 -111.84332 3460 ft 169 kts 270°
2026-05-08 01:48 33.44057 -111.87078 3072 ft 162 kts 269°
2026-05-08 01:48 33.44061 -111.88418 2848 ft 161 kts 270°
2026-05-08 01:48 33.44064 -111.89754 2645 ft 159 kts 270°
2026-05-08 01:48 33.44067 -111.91082 2434 ft 159 kts 271°
2026-05-08 01:49 33.44069 -111.92410 2235 ft 158 kts 271°
2026-05-08 01:49 33.44072 -111.93687 2057 ft 150 kts 270°
2026-05-08 01:49 33.44074 -111.94934 1888 ft 151 kts 272°
2026-05-08 01:49 33.44076 -111.96182 1686 ft 148 kts 270°
2026-05-08 01:50 33.44078 -111.97397 1486 ft 147 kts 270°
2026-05-08 01:50 33.44081 -111.98615 1303 ft 146 kts 271°
2026-05-08 01:50 33.44084 -111.99811 1136 ft 138 kts 269°
2026-05-08 01:50 33.44084 -112.00802 1123 ft 96 kts 270°
2026-05-08 01:51 33.44086 -112.01377 1127 ft 43 kts 270°
2026-05-08 01:51 33.44079 -112.01638 1127 ft 20 kts 253°
2026-05-08 01:51 33.43987 -112.01702 1125 ft 15 kts 142°
2026-05-08 01:51 33.43975 -112.01590 1125 ft 14 kts 91°
2026-05-08 01:52 33.43974 -112.01466 1119 ft 15 kts 90°
2026-05-08 01:52 33.43976 -112.01334 1123 ft 16 kts 89°
2026-05-08 01:52 33.43969 -112.01186 1123 ft 20 kts 105°
2026-05-08 01:52 33.43906 -112.01014 1121 ft 26 kts 95°
2026-05-08 01:53 33.43901 -112.00776 1124 ft 29 kts 90°
2026-05-08 01:53 33.43901 -112.00535 1124 ft 29 kts 90°
2026-05-08 01:53 33.43904 -112.00335 1124 ft 14 kts 89°
2026-05-08 01:53 33.43890 -112.00246 1124 ft 11 kts 123°
2026-05-08 01:54 33.43837 -112.00218 1124 ft 5 kts 160°
2026-05-08 01:54 33.43831 -112.00216 1124 ft 0 kts 160°